Radiation Dose at Monitoring Post of Fukushima Daini Nuclear Power Station
Date,Time,MP-1(microSv/h),MP-2(microSv/h),MP-3(microSv/h),MP-4(microSv/h),MP-5(microSv/h),MP-6(microSv/h),MP-7(microSv/h),Wind Direction,Wind Velocity(m/s),Rain
2022/04/03,00:00,0.159,0.145,0.231,0.222,0.223,0.125,0.080,south-southwest,3.7,No
2022/04/03,00:10,0.159,0.143,0.231,0.221,0.224,0.125,0.080,south-southwest,3.2,No
2022/04/03,00:20,0.159,0.144,0.230,0.222,0.223,0.125,0.079,southwest,3.0,No
2022/04/03,00:30,0.158,0.145,0.230,0.222,0.223,0.125,0.079,southwest,3.5,No
2022/04/03,00:40,0.158,0.145,0.230,0.223,0.222,0.125,0.079,southwest,4.3,No
2022/04/03,00:50,0.158,0.144,0.229,0.222,0.223,0.126,0.080,southwest,4.3,No
2022/04/03,01:00,0.158,0.144,0.229,0.223,0.223,0.124,0.079,southwest,4.1,No
2022/04/03,01:10,0.158,0.145,0.230,0.222,0.222,0.125,0.079,southwest,4.3,No
2022/04/03,01:20,0.158,0.144,0.230,0.222,0.222,0.125,0.079,south-southwest,4.3,No
2022/04/03,01:30,0.159,0.144,0.230,0.222,0.223,0.126,0.079,southwest,4.0,No
2022/04/03,01:40,0.158,0.144,0.230,0.222,0.222,0.124,0.080,southwest,3.5,No
2022/04/03,01:50,0.158,0.144,0.230,0.223,0.222,0.125,0.079,southwest,3.0,No
2022/04/03,02:00,0.159,0.143,0.230,0.221,0.224,0.125,0.080,southwest,2.9,No
2022/04/03,02:10,0.158,0.143,0.230,0.221,0.222,0.124,0.080,south-southwest,1.9,No
2022/04/03,02:20,0.159,0.144,0.230,0.221,0.223,0.125,0.080,southwest,2.7,No
2022/04/03,02:30,0.158,0.144,0.229,0.223,0.223,0.125,0.079,south-southwest,2.5,No
2022/04/03,02:40,0.159,0.144,0.230,0.222,0.224,0.125,0.080,south,1.6,No
2022/04/03,02:50,0.159,0.143,0.231,0.221,0.223,0.126,0.080,south-southwest,1.6,No
2022/04/03,03:00,0.158,0.144,0.230,0.222,0.223,0.126,0.080,south-southwest,1.9,No
2022/04/03,03:10,0.158,0.144,0.230,0.222,0.222,0.125,0.080,southwest,1.9,No
2022/04/03,03:20,0.159,0.144,0.229,0.222,0.223,0.125,0.080,southwest,1.4,No
2022/04/03,03:30,0.158,0.145,0.230,0.222,0.223,0.125,0.079,southwest,2.2,No
2022/04/03,03:40,0.158,0.145,0.231,0.222,0.223,0.125,0.079,southwest,1.9,No
2022/04/03,03:50,0.159,0.145,0.231,0.221,0.223,0.125,0.079,southwest,1.6,No
2022/04/03,04:00,0.159,0.145,0.230,0.223,0.223,0.125,0.079,southwest,1.9,No
2022/04/03,04:10,0.160,0.144,0.228,0.222,0.223,0.125,0.080,southwest,1.6,No
2022/04/03,04:20,0.158,0.144,0.231,0.222,0.223,0.124,0.080,south-southwest,0.7,No
2022/04/03,04:30,0.159,0.144,0.228,0.221,0.222,0.126,0.080,south-southwest,0.8,No
2022/04/03,04:40,0.159,0.144,0.230,0.222,0.222,0.125,0.080,southwest,1.3,No
2022/04/03,04:50,0.158,0.144,0.232,0.221,0.223,0.125,0.080,south-southwest,1.0,No
2022/04/03,05:00,0.159,0.144,0.231,0.221,0.223,0.126,0.080,south-southwest,1.3,No
2022/04/03,05:10,0.159,0.144,0.230,0.222,0.222,0.124,0.080,south-southwest,0.7,No
2022/04/03,05:20,0.159,0.145,0.230,0.221,0.223,0.124,0.079,-,CALM,No
2022/04/03,05:30,0.157,0.145,0.229,0.222,0.224,0.125,0.079,east-southeast,0.5,No
2022/04/03,05:40,0.158,0.145,0.231,0.222,0.223,0.126,0.080,south,0.7,No
2022/04/03,05:50,0.159,0.145,0.230,0.223,0.223,0.125,0.080,southeast,0.8,No
2022/04/03,06:00,0.158,0.145,0.228,0.222,0.222,0.125,0.079,south-southeast,1.0,No
2022/04/03,06:10,0.158,0.144,0.230,0.222,0.222,0.124,0.080,southeast,1.0,No
2022/04/03,06:20,0.159,0.145,0.230,0.221,0.224,0.124,0.080,east-southeast,1.0,No
2022/04/03,06:30,0.158,0.144,0.230,0.221,0.222,0.125,0.080,east,1.6,No
2022/04/03,06:40,0.158,0.145,0.229,0.222,0.223,0.125,0.080,-,CALM,No
2022/04/03,06:50,0.159,0.145,0.230,0.222,0.225,0.126,0.080,east-northeast,0.5,No
2022/04/03,07:00,0.159,0.145,0.231,0.223,0.224,0.126,0.080,east-northeast,1.1,No
2022/04/03,07:10,0.159,0.145,0.231,0.222,0.224,0.126,0.080,north-northeast,1.1,No
2022/04/03,07:20,0.160,0.145,0.229,0.223,0.225,0.126,0.080,north,1.0,No
2022/04/03,07:30,0.158,0.145,0.230,0.223,0.223,0.125,0.080,north,1.3,No
2022/04/03,07:40,0.159,0.145,0.230,0.221,0.224,0.126,0.080,north-northwest,1.0,No
2022/04/03,07:50,0.159,0.144,0.229,0.222,0.224,0.126,0.079,north-northwest,0.7,No
2022/04/03,08:00,0.160,0.144,0.230,0.221,0.225,0.125,0.080,north-northeast,1.3,No
2022/04/03,08:10,0.159,0.144,0.230,0.222,0.223,0.125,0.079,north,1.9,No
2022/04/03,08:20,0.160,0.144,0.229,0.222,0.225,0.126,0.080,north-northeast,2.4,No
2022/04/03,08:30,0.159,0.145,0.231,0.221,0.223,0.125,0.080,north-northeast,3.3,No
2022/04/03,08:40,0.158,0.145,0.230,0.223,0.223,0.126,0.079,north-northeast,4.4,No
2022/04/03,08:50,0.159,0.144,0.231,0.222,0.224,0.126,0.079,north-northeast,3.5,No
2022/04/03,09:00,0.158,0.145,0.230,0.222,0.223,0.126,0.080,north,3.5,No
2022/04/03,09:10,0.158,0.144,0.229,0.222,0.226,0.126,0.080,north-northeast,3.0,No
2022/04/03,09:20,0.159,0.144,0.229,0.221,0.224,0.125,0.080,north-northeast,4.6,No
2022/04/03,09:30,0.158,0.144,0.227,0.221,0.224,0.124,0.080,northeast,3.5,No
2022/04/03,09:40,0.158,0.143,0.230,0.221,0.224,0.124,0.079,northeast,3.3,No
2022/04/03,09:50,0.158,0.143,0.229,0.221,0.222,0.125,0.079,north-northeast,2.4,No
2022/04/03,10:00,0.158,0.144,0.230,0.221,0.223,0.125,0.080,north-northeast,2.2,No
2022/04/03,10:10,0.159,0.143,0.230,0.221,0.223,0.124,0.080,northeast,2.7,No
2022/04/03,10:20,0.158,0.144,0.229,0.222,0.222,0.124,0.079,northeast,2.9,No
2022/04/03,10:30,0.158,0.144,0.231,0.221,0.223,0.124,0.079,northeast,3.3,No
2022/04/03,10:40,0.159,0.144,0.229,0.221,0.224,0.124,0.079,northeast,3.0,No
2022/04/03,10:50,0.158,0.144,0.231,0.222,0.223,0.124,0.079,northeast,3.7,No
2022/04/03,11:00,0.159,0.144,0.229,0.220,0.222,0.124,0.079,north-northeast,3.7,No
2022/04/03,11:10,0.158,0.144,0.231,0.223,0.223,0.125,0.079,northeast,3.2,No
2022/04/03,11:20,0.158,0.144,0.229,0.221,0.225,0.124,0.079,northeast,3.0,No
2022/04/03,11:30,0.158,0.144,0.230,0.222,0.223,0.125,0.080,northeast,2.7,No
2022/04/03,11:40,0.159,0.144,0.229,0.222,0.223,0.124,0.079,northeast,2.7,No
2022/04/03,11:50,0.158,0.143,0.230,0.222,0.223,0.125,0.080,east-northeast,2.9,No
2022/04/03,12:00,0.159,0.145,0.229,0.221,0.223,0.125,0.079,north-northeast,1.9,No
2022/04/03,12:10,0.158,0.144,0.229,0.222,0.224,0.124,0.079,northeast,2.9,No
2022/04/03,12:20,0.158,0.145,0.230,0.221,0.222,0.125,0.079,east-northeast,2.7,No
2022/04/03,12:30,0.158,0.144,0.229,0.222,0.224,0.126,0.080,east-southeast,2.4,No
2022/04/03,12:40,0.157,0.143,0.230,0.222,0.223,0.124,0.080,east,2.7,No
2022/04/03,12:50,0.159,0.143,0.228,0.222,0.225,0.125,0.080,east,2.7,No
2022/04/03,13:00,0.157,0.144,0.232,0.222,0.222,0.125,0.079,east,2.4,No
2022/04/03,13:10,0.159,0.144,0.230,0.222,0.223,0.125,0.079,east-southeast,2.2,No
2022/04/03,13:20,0.159,0.143,0.231,0.222,0.223,0.126,0.080,east,1.9,No
2022/04/03,13:30,0.158,0.143,0.230,0.221,0.222,0.124,0.079,east-southeast,1.9,No
2022/04/03,13:40,0.156,0.144,0.230,0.221,0.224,0.125,0.079,east,1.6,No
2022/04/03,13:50,0.159,0.144,0.229,0.222,0.222,0.125,0.079,east,1.6,No
2022/04/03,14:00,0.157,0.145,0.229,0.222,0.225,0.125,0.079,east,1.9,No
2022/04/03,14:10,0.159,0.145,0.231,0.223,0.223,0.124,0.080,southeast,1.1,No
2022/04/03,14:20,0.158,0.144,0.229,0.221,0.224,0.125,0.079,east-southeast,1.6,No
2022/04/03,14:30,0.158,0.144,0.231,0.224,0.222,0.124,0.079,east-southeast,1.9,No
2022/04/03,14:40,0.159,0.144,0.228,0.220,0.224,0.124,0.079,southeast,3.3,No
2022/04/03,14:50,0.159,0.144,0.230,0.222,0.222,0.124,0.078,southeast,4.4,No
2022/04/03,15:00,0.158,0.143,0.231,0.222,0.223,0.125,0.079,southeast,4.7,No
2022/04/03,15:10,0.158,0.144,0.229,0.222,0.222,0.124,0.079,southeast,4.7,No
2022/04/03,15:20,0.159,0.144,0.230,0.223,0.223,0.125,0.079,southeast,5.4,No
2022/04/03,15:30,0.157,0.145,0.230,0.222,0.223,0.124,0.079,southeast,5.5,No
2022/04/03,15:40,0.159,0.144,0.230,0.223,0.224,0.125,0.079,southeast,5.5,No
2022/04/03,15:50,0.158,0.144,0.230,0.223,0.222,0.125,0.079,southeast,4.9,No
2022/04/03,16:00,0.159,0.145,0.230,0.222,0.224,0.125,0.079,southeast,4.3,No
2022/04/03,16:10,0.158,0.144,0.231,0.223,0.222,0.125,0.079,southeast,3.7,No
2022/04/03,16:20,0.159,0.144,0.230,0.222,0.223,0.124,0.080,south-southeast,4.1,No
2022/04/03,16:30,0.158,0.144,0.230,0.222,0.223,0.124,0.079,south-southeast,4.4,No
2022/04/03,16:40,0.158,0.144,0.230,0.222,0.223,0.125,0.079,south-southeast,5.2,No
2022/04/03,16:50,0.159,0.144,0.229,0.222,0.223,0.124,0.079,south-southeast,6.2,No
2022/04/03,17:00,0.158,0.145,0.230,0.224,0.223,0.124,0.079,south-southeast,5.0,No
2022/04/03,17:10,0.159,0.145,0.229,0.222,0.224,0.126,0.078,south-southeast,5.0,No
2022/04/03,17:20,0.159,0.144,0.229,0.223,0.222,0.126,0.080,south,4.4,No
2022/04/03,17:30,0.158,0.144,0.229,0.224,0.224,0.125,0.079,south,3.5,No
2022/04/03,17:40,0.159,0.144,0.231,0.222,0.224,0.125,0.079,south,3.8,No
2022/04/03,17:50,0.158,0.144,0.229,0.222,0.223,0.125,0.078,south,4.1,No
2022/04/03,18:00,0.157,0.144,0.230,0.222,0.225,0.125,0.080,south,4.4,No
2022/04/03,18:10,0.159,0.144,0.232,0.222,0.223,0.125,0.079,south,4.0,No
2022/04/03,18:20,0.158,0.145,0.231,0.222,0.223,0.125,0.079,south-southwest,3.8,No
2022/04/03,18:30,0.158,0.145,0.230,0.224,0.223,0.125,0.078,south-southwest,4.4,No
2022/04/03,18:40,0.157,0.143,0.230,0.223,0.224,0.125,0.079,south-southwest,4.9,No
2022/04/03,18:50,0.158,0.145,0.230,0.222,0.225,0.124,0.078,south-southwest,4.7,Yes
2022/04/03,19:00,0.159,0.143,0.230,0.223,0.224,0.126,0.079,south-southwest,4.6,Yes
2022/04/03,19:10,0.158,0.143,0.231,0.223,0.223,0.125,0.080,south-southwest,4.6,Yes
2022/04/03,19:20,0.158,0.145,0.232,0.223,0.225,0.127,0.080,south-southwest,4.9,Yes
2022/04/03,19:30,0.159,0.145,0.230,0.225,0.224,0.126,0.080,south-southwest,5.5,Yes
2022/04/03,19:40,0.159,0.145,0.230,0.224,0.224,0.126,0.081,south-southwest,5.1,Yes
2022/04/03,19:50,0.160,0.146,0.231,0.222,0.225,0.127,0.082,southwest,5.1,Yes
2022/04/03,20:00,0.159,0.145,0.230,0.223,0.224,0.127,0.081,southwest,6.0,Yes
2022/04/03,20:10,0.160,0.146,0.229,0.224,0.223,0.126,0.081,southwest,5.1,Yes
2022/04/03,20:20,0.160,0.146,0.231,0.223,0.224,0.127,0.081,southwest,5.4,Yes
2022/04/03,20:30,0.160,0.146,0.229,0.222,0.223,0.126,0.081,southwest,5.1,Yes
2022/04/03,20:40,0.159,0.145,0.230,0.223,0.224,0.126,0.080,southwest,5.4,Yes
2022/04/03,20:50,0.160,0.146,0.228,0.222,0.224,0.127,0.080,west-southwest,6.5,Yes
2022/04/03,21:00,0.160,0.145,0.230,0.222,0.222,0.127,0.080,west-southwest,6.5,Yes
2022/04/03,21:10,0.159,0.145,0.229,0.221,0.223,0.126,0.080,southwest,6.8,Yes
2022/04/03,21:20,0.159,0.144,0.228,0.221,0.223,0.126,0.080,southwest,7.4,Yes
2022/04/03,21:30,0.159,0.145,0.229,0.221,0.222,0.126,0.080,southwest,6.9,Yes
2022/04/03,21:40,0.158,0.145,0.229,0.222,0.223,0.126,0.080,southwest,7.0,Yes
2022/04/03,21:50,0.160,0.144,0.228,0.223,0.223,0.127,0.080,southwest,5.8,Yes
2022/04/03,22:00,0.159,0.145,0.229,0.223,0.223,0.127,0.081,southwest,4.7,Yes
2022/04/03,22:10,0.158,0.145,0.229,0.222,0.223,0.127,0.080,west-southwest,5.1,Yes
2022/04/03,22:20,0.159,0.145,0.229,0.222,0.224,0.126,0.081,southwest,5.2,Yes
2022/04/03,22:30,0.159,0.145,0.228,0.222,0.224,0.126,0.081,southwest,5.4,Yes
2022/04/03,22:40,0.160,0.144,0.228,0.221,0.223,0.126,0.081,southwest,5.7,Yes
2022/04/03,22:50,0.160,0.145,0.228,0.222,0.223,0.125,0.080,southwest,6.0,Yes
2022/04/03,23:00,0.159,0.145,0.228,0.221,0.223,0.125,0.079,west-southwest,5.8,Yes
2022/04/03,23:10,0.157,0.144,0.228,0.220,0.223,0.125,0.081,west-southwest,5.8,Yes
2022/04/03,23:20,0.158,0.144,0.228,0.221,0.223,0.125,0.079,west-southwest,5.0,Yes
2022/04/03,23:30,0.158,0.144,0.227,0.221,0.223,0.125,0.079,west-southwest,4.1,Yes
2022/04/03,23:40,0.157,0.143,0.226,0.220,0.222,0.125,0.079,west-southwest,4.1,Yes
2022/04/03,23:50,0.158,0.144,0.228,0.220,0.221,0.124,0.079,west-southwest,4.1,Yes
